RH
12 16 18 17 15 12 10 8 8 9 9 10 10 10 10 11 11 9 9 8 9 13 16 17 18 18 20 20 17 15 14 14 18 20 20 22 26 27 29 33 36 39 37 36 35 34 37 39 39 40 41 41 44 47 48 50 49 50 52 50 53 59 63 62 59 62 65 64 65 65 64 66 66 67 69 68 66 65 66 67 68 68 70 72 73 74
13 17 17 14 13 11 9 9 8 8 9 9 10 11 10 11 10 8 8 9 8 12 17 17 18 20 20 20 18 16 16 15 16 20 20 22 25 26 27 30 34 36 35 35 36 35 36 39 40 40 41 42 45 48 49 51 51 50 52 50 51 58 63 63 61 62 65 65 66 66 66 66 66 67 68 69 68 66 67 68 70 71 72 74 76 75
16 17 14 11 10 10 9 8 8 8 9 9 10 11 12 12 10 9 9 9 9 12 18 18 19 22 20 19 19 16 16 16 15 18 20 21 25 27 26 27 32 35 35 37 37 36 36 38 41 40 41 42 44 49 50 52 52 51 53 53 52 56 63 65 64 63 65 66 67 67 67 67 67 67 67 70 70 67 67 69 72 74 76 78 78 74
17 15 11 9 9 9 8 8 8 8 8 9 10 12 13 11 10 12 10 10 11 12 16 18 19 23 22 20 21 18 16 16 15 15 18 20 23 25 24 24 29 33 35 38 38 37 36 38 41 42 43 43 44 49 52 53 55 53 54 55 54 56 62 66 66 65 64 67 69 68 68 67 66 66 66 68 70 69 68 68 71 72 74 78 78 76
14 11 8 9 8 8 8 7 7 8 9 9 10 11 12 10 10 11 10 10 11 11 13 18 23 26 25 23 22 20 19 17 16 15 17 20 21 23 23 23 26 30 33 37 39 37 37 37 40 42 44 44 46 49 51 54 57 57 56 56 56 56 61 66 67 66 66 68 72 70 69 68 66 66 67 68 70 72 69 68 69 69 71 76 79 81
12 9 7 8 8 8 8 8 7 8 10 10 10 10 10 9 9 10 9 10 15 17 14 16 28 33 29 26 24 22 22 21 19 18 19 21 22 22 24 24 25 27 30 35 38 37 36 36 39 43 46 46 47 48 49 52 55 58 57 57 58 57 59 65 67 67 68 71 72 69 68 68 66 67 70 70 71 72 70 69 71 72 73 77 83 87
11 8 7 8 8 8 8 8 7 7 9 10 10 9 9 9 10 10 8 12 19 22 15 14 29 39 33 27 26 23 24 24 24 23 22 24 25 22 23 25 24 25 28 32 35 36 35 35 38 43 47 47 47 48 48 50 54 58 59 58 60 60 59 62 67 68 68 72 72 67 67 68 66 66 68 68 69 69 68 70 74 76 77 80 85 88
10 9 8 7 7 7 8 8 6 6 7 9 8 7 9 9 9 10 8 11 16 18 17 13 23 38 37 30 26 24 26 26 26 26 24 25 26 22 22 25 24 24 27 30 32 35 35 35 37 43 48 47 46 47 48 51 54 58 60 60 62 65 64 62 65 68 68 70 71 67 67 69 67 64 64 65 66 67 69 73 77 78 80 82 85 85
9 10 9 7 7 7 7 7 5 5 6 6 6 6 8 8 9 10 9 11 11 15 23 19 18 31 38 33 26 25 28 28 27 26 26 27 26 23 22 24 25 25 26 28 29 32 35 35 35 40 46 47 46 46 48 50 53 57 61 62 64 68 69 66 65 68 70 70 70 69 69 70 69 66 66 65 65 68 70 75 78 75 76 81 83 82
7 9 8 7 7 6 6 5 4 5 5 5 5 5 7 8 8 9 9 12 12 16 25 23 18 27 37 35 29 28 29 29 29 27 27 29 28 25 23 22 24 25 26 27 26 29 33 34 34 38 45 47 45 46 47 49 52 57 62 65 67 69 71 70 67 67 71 72 71 72 72 73 72 71 71 70 69 70 69 70 72 71 72 75 78 79
7 7 8 7 7 5 5 5 4 4 4 4 5 5 7 8 9 11 12 13 15 21 25 22 17 22 33 35 30 28 27 26 30 30 29 29 28 27 25 22 23 25 26 27 26 27 30 33 33 36 44 47 46 46 47 49 52 57 63 67 68 69 71 73 71 68 70 73 74 75 75 75 75 76 75 74 72 71 68 66 66 69 70 70 73 76
7 8 8 7 6 5 5 5 4 4 3 4 5 6 8 10 12 14 15 17 18 22 22 19 14 17 30 35 28 25 24 22 26 29 28 27 26 26 25 22 22 24 26 26 27 27 28 34 35 36 43 47 47 47 48 49 52 58 64 68 70 71 71 72 73 71 70 72 75 76 76 77 78 77 76 72 71 71 68 66 67 70 72 70 71 74
9 9 8 7 7 6 6 5 5 5 4 4 5 7 11 14 17 18 19 21 22 21 17 13 13 14 24 30 25 22 23 20 21 24 24 24 23 24 25 24 22 24 25 25 27 28 28 33 37 36 42 48 48 48 49 49 52 58 64 69 72 73 71 71 73 74 73 72 74 75 76 77 78 77 74 69 68 69 67 66 68 70 71 71 71 73
12 10 8 8 8 6 7 7 7 6 5 5 5 8 13 16 20 23 22 21 22 22 16 10 13 15 18 23 22 20 20 18 17 18 20 21 21 22 24 24 22 22 24 25 26 28 30 32 36 37 40 47 50 48 49 49 51 56 64 69 72 73 72 72 73 75 76 74 73 75 75 76 78 77 73 68 67 68 65 65 68 67 68 70 69 72
15 16 11 9 8 7 7 6 7 6 5 5 4 5 11 14 18 21 22 20 21 23 18 12 15 18 19 22 21 17 17 17 17 16 17 20 20 19 22 23 22 21 22 25 26 29 33 32 34 37 39 44 49 48 49 49 51 55 62 67 71 73 73 72 73 75 76 77 76 76 75 76 77 77 74 69 66 66 64 63 67 66 67 70 68 68
14 15 10 8 7 6 7 6 6 6 5 5 4 5 8 10 13 17 20 18 17 21 19 14 16 18 19 23 19 14 16 16 17 17 16 20 21 19 20 23 23 21 21 25 27 31 37 36 34 36 38 42 47 48 48 48 50 54 59 66 69 71 73 73 73 74 75 77 78 77 77 76 77 77 74 71 68 67 65 62 66 67 67 71 68 67
13 13 8 8 8 6 7 7 6 7 7 6 5 5 6 5 8 14 17 15 15 21 20 15 16 17 15 18 18 16 16 15 16 17 16 19 22 21 22 23 22 22 23 26 29 30 36 40 38 36 38 41 44 47 48 48 50 52 57 64 68 69 72 73 73 74 75 77 78 78 78 77 78 77 74 72 69 68 67 63 64 68 69 71 69 67
11 12 8 7 8 7 6 6 6 6 6 6 6 5 5 6 7 11 15 17 19 23 19 14 16 19 19 20 19 17 17 16 16 16 14 17 22 23 23 23 22 23 25 27 29 30 33 39 40 37 36 39 43 45 47 47 48 51 54 61 66 69 72 73 73 74 74 76 78 79 79 78 78 76 74 73 70 68 69 67 66 70 72 72 71 68
9 12 10 7 8 8 5 6 7 5 4 5 5 5 6 10 10 11 15 17 21 22 18 16 16 19 23 24 21 18 18 18 17 17 15 15 20 24 23 24 23 24 27 29 30 31 32 35 38 38 36 37 41 44 46 47 48 50 54 59 64 66 69 71 72 74 74 75 77 79 80 79 78 76 74 73 71 70 70 69 68 70 73 73 72 70
8 12 12 7 6 7 7 8 9 7 5 4 5 5 6 9 10 11 12 14 19 21 20 21 19 18 22 23 21 20 18 17 16 18 17 14 17 21 22 24 25 25 28 28 28 31 32 32 33 35 35 35 39 43 45 47 48 50 54 59 63 65 68 70 72 73 75 76 77 79 81 80 78 76 74 73 73 72 71 70 69 69 71 73 72 71
8 12 14 10 7 8 9 9 8 8 6 5 6 7 6 7 8 9 9 9 14 20 23 24 21 21 22 18 16 19 18 15 16 17 18 16 16 17 19 23 25 26 27 27 26 27 29 31 31 32 33 34 38 43 45 46 48 49 53 58 62 65 68 70 71 72 74 76 77 79 80 81 79 77 75 73 74 73 72 71 70 69 70 71 72 71
8 11 14 12 9 9 9 8 7 6 7 6 6 7 7 7 8 10 12 11 9 13 18 20 21 24 22 14 13 19 19 14 15 18 18 16 15 16 18 22 24 25 26 25 25 24 26 31 31 32 33 33 38 44 44 45 46 47 51 56 60 64 67 69 71 72 74 76 77 78 79 80 79 77 76 74 75 74 73 71 70 70 70 70 71 71
9 10 13 14 10 9 8 7 7 6 5 6 6 6 6 6 8 11 16 17 11 10 12 14 19 25 21 13 14 22 22 16 14 18 18 15 14 14 18 21 23 24 25 23 23 23 26 31 31 33 35 34 38 43 44 44 46 46 49 53 57 62 65 66 69 71 73 75 77 77 78 79 78 78 77 75 75 75 73 72 70 70 70 70 70 71
11 11 14 15 12 10 8 6 6 6 5 6 6 6 6 6 6 7 13 20 15 12 15 15 17 19 16 14 17 21 22 17 13 15 17 15 13 12 15 22 24 24 25 24 22 23 27 32 33 35 38 37 38 42 44 44 45 45 47 50 54 59 62 64 67 70 72 74 76 76 77 78 78 78 78 76 75 74 74 72 71 70 70 70 70 71
11 13 15 19 18 15 15 13 9 7 7 7 7 6 6 6 5 4 8 15 16 15 16 17 21 22 17 16 20 20 18 15 14 15 14 15 16 12 13 23 26 25 26 25 24 26 29 33 35 37 41 42 41 41 43 44 44 44 45 47 51 54 58 62 65 68 71 73 75 76 76 77 78 78 78 77 74 73 73 72 71 70 70 70 70 71
10 15 14 18 21 19 19 20 15 10 8 8 8 6 5 5 5 6 7 12 21 25 19 14 21 26 19 12 14 19 18 14 14 16 13 14 17 13 16 26 27 26 29 30 28 30 32 35 38 41 46 47 43 42 43 44 43 43 43 44 47 50 54 58 61 65 70 73 73 74 75 75 76 77 77 76 74 72 71 70 70 69 69 69 69 70
9 16 15 15 19 18 20 21 16 12 9 8 8 7 7 6 5 7 8 9 18 28 25 19 20 21 19 15 13 16 17 14 16 17 16 22 25 23 29 35 29 28 32 30 28 31 35 38 41 45 50 49 44 43 44 44 43 43 43 43 44 47 50 54 58 62 67 71 73 73 73 74 75 75 75 75 73 72 70 69 67 67 68 67 67 68
13 16 16 16 16 15 18 18 13 12 10 9 9 8 7 7 5 7 9 7 10 17 21 25 26 19 15 14 14 18 18 16 20 21 16 24 33 32 34 36 31 30 31 27 27 31 37 41 44 47 50 48 44 44 45 45 43 43 43 42 42 45 49 53 57 60 65 69 71 71 72 72 72 73 74 73 72 71 69 68 65 65 66 67 67 66
20 19 15 14 14 12 11 12 10 11 11 8 8 9 8 8 7 7 8 8 10 14 14 19 30 30 21 13 12 19 20 16 21 22 14 21 35 37 36 35 31 30 29 27 31 36 41 45 46 48 49 47 44 44 45 46 44 43 43 42 41 44 47 52 57 59 62 66 68 69 69 69 70 71 72 72 71 70 68 66 65 63 64 66 67 67
20 25 19 11 13 12 9 10 9 9 11 9 7 8 7 7 8 7 8 7 8 14 12 12 23 29 24 17 12 18 24 21 23 22 14 20 35 38 37 36 32 30 31 32 36 39 42 43 45 49 50 49 47 44 44 46 45 43 43 42 41 43 44 48 54 58 60 63 66 66 66 67 68 69 71 72 71 70 68 66 65 63 64 66 67 68
18 25 22 13 16 15 9 9 9 8 10 10 8 9 7 7 8 6 8 7 7 13 12 11 18 18 16 17 14 17 24 22 23 23 16 19 31 34 35 36 33 33 36 39 41 42 42 42 44 49 53 53 50 45 43 46 45 43 42 41 41 41 41 44 50 54 56 60 63 64 64 66 66 67 69 71 71 71 69 67 66 64 64 66 68 69
21 21 19 18 24 22 12 10 11 9 10 10 10 10 8 7 8 7 7 7 8 12 13 15 20 19 18 18 14 13 18 18 22 25 21 23 29 27 28 33 35 37 39 40 43 44 44 45 47 50 51 51 50 46 43 44 45 44 42 40 40 39 38 41 46 50 52 55 59 63 64 66 67 67 68 70 71 72 71 68 67 65 63 64 68 70
24 19 18 22 28 25 16 13 13 11 13 14 12 11 10 9 8 7 8 8 7 8 10 15 20 23 26 22 13 11 13 14 20 25 23 26 30 26 22 24 28 33 37 39 41 42 44 45 49 53 50 47 48 46 43 42 44 44 41 39 39 38 36 37 42 46 49 51 55 60 64 66 68 69 69 69 71 71 71 70 67 65 63 62 65 69
27 25 23 23 27 27 20 16 18 21 21 16 10 9 10 11 10 9 9 9 8 7 6 9 15 19 21 20 17 15 13 9 15 23 23 23 30 31 24 20 20 22 30 38 39 41 42 42 47 54 52 47 46 45 42 41 42 42 41 39 37 36 35 35 38 43 45 48 52 57 62 66 68 70 70 69 70 70 71 70 67 65 64 62 65 69
28 31 28 23 24 28 24 21 29 34 26 16 11 10 10 10 11 12 11 10 9 9 8 8 10 12 12 14 18 22 25 22 21 27 29 22 26 33 28 24 25 26 31 40 41 41 43 42 45 53 54 49 46 45 44 42 41 41 40 38 36 35 33 32 36 41 42 45 51 56 61 66 68 70 71 70 70 70 70 70 69 67 65 65 67 69
30 34 32 25 22 24 27 30 34 33 24 16 14 13 14 15 14 15 17 18 16 16 18 19 19 21 23 25 25 25 29 27 22 28 32 24 24 32 28 24 27 27 28 37 42 44 46 45 44 47 50 48 46 45 45 42 41 42 40 38 35 33 31 31 35 40 41 43 49 56 61 65 68 70 72 73 72 72 73 73 71 69 68 69 70 71
27 34 40 39 28 21 26 29 28 25 23 21 18 15 16 18 18 22 27 29 27 27 30 29 28 29 32 35 37 33 28 22 19 23 26 20 18 22 21 18 19 19 20 27 37 44 46 44 42 41 43 46 45 45 45 43 42 42 41 39 37 34 31 31 35 41 42 41 48 57 61 65 69 72 75 76 76 77 78 75 71 72 73 74 74 74
23 32 46 51 39 27 25 27 28 28 28 27 23 18 18 18 21 30 38 38 38 37 35 34 36 38 40 42 43 39 31 28 28 24 19 15 12 11 13 12 10 10 13 17 28 43 47 43 41 40 42 45 46 43 43 43 43 43 44 42 40 38 36 32 35 42 44 42 47 56 63 66 70 75 79 80 81 82 80 76 75 76 76 75 76 77
20 28 41 46 43 36 29 27 28 26 29 32 26 19 20 20 21 30 39 44 47 43 36 37 43 48 51 51 47 41 37 37 37 31 22 16 12 8 6 6 10 17 20 17 23 39 49 44 41 44 46 46 46 44 43 43 43 45 47 45 42 43 43 38 39 43 44 44 49 58 65 70 75 79 82 83 83 82 81 79 78 78 76 76 78 80
30 35 42 42 41 42 39 34 28 26 36 41 30 20 22 21 20 30 41 48 51 46 39 40 46 50 54 55 53 50 50 51 50 45 36 25 22 22 16 16 27 36 34 28 25 33 46 50 48 51 53 49 46 44 43 45 45 47 50 48 45 46 47 45 45 46 47 50 58 66 72 76 80 82 83 83 84 82 80 78 78 79 80 81 82 84
47 49 49 43 40 43 45 41 32 33 43 43 31 25 24 22 27 39 49 55 54 46 42 43 46 49 52 55 59 60 59 59 59 58 54 44 41 45 39 35 39 38 33 34 32 32 44 54 53 53 53 49 47 47 45 45 48 50 51 51 49 46 46 49 52 54 57 63 70 75 79 81 83 83 82 82 82 79 77 77 79 83 85 86 86 86
70 68 61 48 40 40 49 53 48 42 39 34 32 33 30 33 44 49 51 56 53 47 48 48 46 48 51 56 63 65 62 62 64 65 66 63 61 61 56 50 49 45 39 40 39 37 43 52 53 53 52 50 48 48 46 47 51 53 54 55 52 47 47 54 61 64 70 76 79 80 82 83 82 81 82 80 78 78 80 81 83 86 87 87 87 86
83 86 81 63 45 47 65 77 71 56 39 25 30 43 47 54 62 58 51 52 50 48 53 53 50 53 57 60 66 68 66 68 70 70 71 72 71 72 69 65 65 63 54 47 44 41 43 50 54 51 50 53 52 49 47 49 53 57 58 56 51 48 52 62 69 73 78 82 83 83 83 82 80 79 80 79 77 78 82 83 84 85 86 87 88 86
81 90 95 83 67 68 76 71 62 60 50 32 32 51 63 65 63 56 50 51 51 51 55 57 58 61 63 67 72 73 72 73 73 73 74 75 76 78 79 77 77 76 69 61 57 52 48 53 59 53 48 51 52 49 49 51 55 60 61 57 53 54 63 70 74 80 84 84 84 84 81 80 79 79 79 79 78 80 83 83 84 86 87 87 87 87
84 87 90 88 85 85 81 69 64 71 68 49 43 55 60 54 50 49 48 51 55 56 56 59 64 67 68 72 76 77 78 78 77 77 78 80 81 83 84 83 83 83 80 76 75 71 61 61 70 74 71 67 60 52 49 51 58 63 61 58 59 64 71 76 79 83 85 84 83 82 79 80 82 82 82 82 81 82 84 86 87 88 88 87 86 87
79 83 84 85 84 79 77 77 77 82 81 68 56 53 51 47 48 51 53 55 56 56 56 58 63 68 71 74 78 82 84 84 84 84 83 84 86 86 85 85 85 85 86 84 84 83 76 72 79 88 91 87 80 70 59 52 56 62 64 64 68 71 75 79 83 84 84 84 83 82 82 85 86 85 86 86 84 84 86 88 88 89 88 87 86 86
72 78 79 81 82 81 83 86 85 86 86 75 58 49 47 49 51 52 54 57 55 52 54 55 57 62 66 70 76 82 83 83 86 88 88 88 90 89 89 89 88 88 90 90 88 86 83 84 87 90 92 91 91 89 80 66 59 62 68 72 73 74 77 80 82 84 84 85 85 84 85 87 89 89 90 89 89 89 90 89 89 88 88 86 85 86
80 79 79 82 84 82 83 87 88 87 82 70 63 61 54 48 50 52 50 51 52 52 53 53 53 56 59 62 68 73 74 77 83 87 89 91 92 91 92 93 93 92 91 91 90 88 88 89 90 91 93 92 91 93 93 88 80 76 77 78 77 77 80 82 83 86 87 86 84 84 85 87 88 89 90 90 90 91 91 89 87 86 86 84 81 82
84 86 87 87 85 81 80 84 89 90 81 68 68 73 64 49 47 49 47 46 49 52 52 52 51 53 56 58 59 61 65 69 71 74 80 87 91 92 93 93 93 93 92 91 90 88 89 89 87 87 90 91 91 91 93 96 98 95 92 91 87 85 88 90 90 89 88 85 83 83 85 86 87 87 87 87 89 90 90 88 84 82 83 83 78 76
89 94 93 91 90 88 88 90 92 94 92 80 72 72 69 58 50 51 53 54 56 57 57 54 51 51 54 57 57 58 61 63 62 63 66 73 82 90 93 93 93 92 90 89 88 88 89 88 86 89 93 92 91 92 92 94 98 100 99 99 94 89 88 89 88 85 82 80 80 80 82 83 84 84 85 85 86 88 89 88 85 81 81 83 81 79
94 96 94 97 98 92 86 87 90 93 96 92 80 73 68 61 55 56 59 59 61 61 59 57 55 55 58 59 58 58 60 60 60 61 60 61 67 74 80 86 91 92 91 88 87 88 90 88 86 91 97 96 92 93 93 91 91 95 97 95 90 86 83 82 81 79 77 76 76 78 80 81 81 82 83 83 84 86 88 89 86 82 80 80 81 80
Wind_Speed
7 5 8 9 8 9 11 12 11 12 13 14 13 9 8 7 8 11 9 12 15 10 8 11 10 9 9 8 11 15 14 12 12 13 13 13 14 14 13 13 14 14 12 15 20 21 26 30 30 30 31 30 29 32 34 33 35 33 30 32 31 32 35 33 33 30 26 26 25 24 24 21 20 20 19 19 17 17 18 18 18 18 17 16 16 14
8 8 10 10 11 11 11 13 13 14 15 14 12 9 8 7 8 10 7 11 15 8 7 11 9 8 10 7 9 15 14 12 13 13 13 15 15 14 14 15 15 13 12 15 17 19 23 28 30 30 29 31 30 31 35 34 35 34 30 31 31 31 35 35 35 33 29 28 27 26 26 24 21 21 21 20 19 17 17 18 18 17 16 16 16 14
9 10 11 12 12 12 12 13 15 17 15 12 10 8 8 8 7 10 7 12 14 7 6 11 9 7 10 9 8 15 14 11 13 13 13 15 16 15 15 14 14 13 12 14 16 17 20 26 30 30 28 32 32 31 34 35 35 35 32 31 31 31 33 35 35 35 32 29 29 28 27 25 22 22 22 21 20 18 18 18 18 17 17 17 15 14
8 8 11 13 12 14 15 14 15 14 12 11 9 7 8 9 8 8 5 10 13 8 8 12 8 5 9 8 7 11 12 11 14 15 14 15 15 16 17 15 15 16 15 15 17 17 18 22 28 29 28 31 32 30 32 34 35 37 36 33 33 32 31 34 35 34 33 30 27 26 25 24 22 21 22 21 20 19 19 19 19 18 17 17 16 15
9 8 13 15 14 15 15 15 14 11 9 12 13 10 8 11 12 10 7 4 9 9 10 12 7 4 8 10 7 7 9 10 13 14 13 13 15 16 17 16 16 17 16 16 17 18 16 18 24 29 30 31 32 31 32 35 36 37 38 36 35 34 31 32 34 33 32 30 26 24 23 23 21 20 22 24 22 22 21 19 20 21 18 17 17 15
12 9 12 17 16 15 14 13 14 11 7 10 15 16 13 12 13 12 11 6 5 5 6 10 5 4 7 12 11 7 7 9 10 12 12 12 13 14 15 15 16 16 16 16 17 18 17 18 23 27 30 31 31 33 34 36 36 36 38 37 35 35 33 31 33 33 32 31 29 27 26 26 24 21 23 27 26 25 24 21 20 21 19 18 17 15
10 12 12 15 17 17 15 12 14 13 9 7 11 16 17 17 15 13 13 8 4 5 7 9 5 3 6 10 12 11 11 10 9 10 12 11 11 13 14 14 15 15 15 16 17 18 19 19 20 23 29 32 31 33 35 35 35 35 36 37 35 36 36 33 32 34 34 32 31 30 28 28 28 24 22 26 27 24 22 21 20 20 19 17 16 15
9 15 15 15 15 15 14 11 12 14 10 7 9 13 16 18 18 17 14 9 3 4 8 11 7 4 4 7 10 12 13 13 10 10 11 11 12 13 14 15 16 16 15 15 15 17 19 19 20 23 29 33 33 33 34 34 35 36 36 38 36 35 37 36 33 33 35 35 33 32 29 27 28 27 23 23 24 22 20 21 20 19 19 17 16 16
9 14 16 17 14 11 10 11 12 14 11 9 10 12 14 16 18 16 12 8 5 3 5 8 8 5 4 6 7 10 13 14 14 13 12 12 13 14 14 14 16 16 16 16 16 17 18 20 24 28 31 33 34 34 34 34 35 37 37 38 37 34 35 37 36 34 35 36 34 33 30 27 27 27 25 22 22 21 20 21 21 20 19 18 17 18
9 11 14 16 13 9 9 12 14 14 11 9 12 12 11 13 14 13 11 7 6 5 5 9 11 6 4 5 7 8 10 12 13 13 11 11 12 13 13 14 15 15 15 16 17 17 18 24 29 31 32 34 35 36 36 36 35 36 37 37 37 36 35 37 38 37 35 35 35 33 31 29 27 26 25 23 22 22 21 22 22 22 22 21 21 21
10 10 11 12 11 10 9 11 14 16 13 9 11 12 10 10 9 8 7 5 6 6 5 11 16 11 5 5 8 8 9 11 11 11 10 10 11 12 12 14 14 14 13 14 16 16 18 25 32 32 32 34 36 36 36 36 35 36 37 38 38 38 36 36 38 39 37 35 35 34 33 31 29 28 26 25 25 24 23 23 23 25 26 24 23 24
14 12 9 8 9 10 10 10 12 14 14 11 8 8 7 6 5 5 4 5 7 7 5 8 12 11 7 6 7 8 10 12 12 12 14 14 13 13 13 13 14 13 13 14 15 15 15 19 25 28 30 33 35 34 35 36 36 36 36 38 38 38 38 36 36 38 38 37 36 35 34 33 31 30 28 27 28 27 26 24 24 26 29 27 24 24
12 13 11 9 9 11 10 8 9 11 11 10 8 6 6 4 4 6 5 4 6 7 7 7 8 8 6 6 11 12 12 13 13 13 17 19 17 15 14 14 13 12 13 14 13 15 15 15 17 21 25 30 33 34 36 36 36 35 36 38 38 38 39 38 36 37 38 38 37 36 35 34 32 31 30 29 29 29 29 26 25 29 31 30 26 25
7 10 13 12 8 11 13 7 5 8 8 9 8 7 7 5 5 7 5 5 5 5 8 10 8 7 5 5 14 16 15 16 16 15 17 19 20 17 15 15 15 14 14 13 13 14 15 16 16 19 24 28 32 35 36 36 36 35 35 38 39 38 39 39 37 37 37 38 38 37 36 35 33 33 32 30 29 30 30 29 28 30 32 31 29 29
8 7 11 13 7 9 15 11 5 6 8 10 9 7 7 7 6 6 5 4 5 4 7 11 8 5 5 7 14 17 15 15 15 15 16 17 19 18 15 16 16 15 14 12 13 13 14 17 17 19 25 29 32 35 36 36 36 36 35 38 39 38 39 39 38 38 37 37 38 37 36 35 34 33 32 32 31 30 31 31 31 31 31 31 29 30
11 8 8 14 11 9 13 12 9 7 7 8 8 8 9 8 5 4 4 4 4 4 5 7 6 4 5 7 13 15 15 14 13 14 14 14 18 19 16 15 16 15 13 12 12 12 13 15 16 19 25 28 30 34 35 36 36 36 36 38 39 39 39 40 39 38 37 37 37 37 37 36 35 34 33 33 32 31 32 33 33 32 32 31 29 30
8 7 8 14 15 15 12 12 14 11 6 4 7 10 9 7 5 3 4 4 4 5 4 4 4 3 4 5 8 13 15 15 13 13 13 11 15 20 17 15 15 14 13 13 13 13 13 13 15 20 24 27 29 33 35 36 37 37 37 37 39 39 39 39 39 38 37 36 36 36 37 36 35 35 34 34 33 32 32 34 34 33 33 33 32 31
6 5 8 14 16 18 14 11 15 15 9 4 6 7 2 2 4 3 4 4 4 6 4 5 7 5 5 5 6 12 15 16 15 14 14 12 13 18 17 16 16 15 15 15 15 14 13 13 15 19 24 29 32 34 36 37 37 38 38 38 39 39 39 40 39 38 37 37 37 37 37 36 36 37 36 35 35 33 32 34 34 33 34 34 33 33
6 4 7 13 15 16 15 11 12 14 13 9 5 3 4 4 5 4 4 4 5 7 4 5 8 6 6 5 6 12 13 14 15 15 15 14 12 15 17 18 19 17 15 15 15 14 13 14 15 19 25 29 32 34 36 37 38 38 37 38 39 40 40 40 39 38 38 38 37 36 37 37 37 37 37 35 35 34 33 34 35 35 35 34 34 34
6 4 5 11 13 14 12 10 9 8 11 11 8 5 5 5 5 6 6 3 4 5 4 5 7 5 6 5 6 11 12 14 14 14 15 16 14 15 15 16 17 17 15 15 15 14 14 16 17 21 27 29 32 34 35 36 37 37 36 36 38 38 39 39 39 38 37 37 37 35 36 37 37 38 38 36 36 36 35 36 37 36 36 35 34 34
7 6 4 6 8 11 10 9 10 9 9 10 9 9 8 4 4 6 7 6 5 4 4 5 5 5 5 5 8 10 12 15 16 15 15 15 15 17 17 17 16 16 16 16 15 15 16 16 18 23 28 30 30 32 34 36 37 37 36 36 37 38 38 39 39 39 38 37 36 35 36 37 38 38 38 37 36 36 37 37 37 37 36 36 35 34
6 6 5 5 6 8 8 11 14 14 12 11 9 11 10 6 4 5 7 7 7 5 5 5 4 6 5 5 8 10 11 14 15 14 13 12 14 16 16 19 19 18 18 18 17 17 16 15 16 21 26 27 28 31 35 37 37 37 37 37 37 38 38 39 40 40 38 36 36 36 36 37 38 39 38 37 37 37 38 38 38 37 36 36 36 35
8 4 5 6 7 8 8 12 19 19 16 13 11 11 10 8 6 5 5 5 6 6 6 5 5 6 6 6 7 7 9 12 14 13 12 12 14 14 13 17 19 19 19 18 18 16 14 14 15 18 22 25 27 30 34 35 36 37 37 37 37 38 39 40 40 39 38 37 37 37 37 37 39 39 38 38 37 38 39 39 38 38 37 37 36 35
10 6 6 6 6 9 11 9 17 20 17 12 11 11 10 9 8 7 5 3 4 6 5 5 6 7 5 6 7 7 7 9 12 15 14 13 13 13 12 14 16 16 16 16 16 14 12 12 12 14 16 20 23 28 32 33 34 35 36 37 38 38 40 40 39 38 38 38 37 37 37 38 39 39 39 38 39 39 39 39 39 39 38 37 37 36
9 7 6 5 5 7 9 7 10 17 15 9 8 11 13 14 12 9 7 3 4 7 8 5 5 6 6 6 8 7 6 7 8 13 14 11 11 13 12 12 16 17 15 15 14 12 11 11 12 12 12 15 20 25 29 31 33 34 35 36 36 37 39 39 38 37 38 38 37 37 38 39 39 39 39 39 40 40 40 39 38 39 39 38 38 38
8 9 8 8 8 9 9 7 5 9 11 8 8 12 16 18 16 11 6 5 6 8 10 8 6 5 6 11 12 9 6 5 5 8 12 10 11 13 10 11 17 17 14 14 12 10 11 12 12 13 11 12 19 23 26 29 32 33 34 35 36 36 37 37 37 37 37 38 38 38 40 40 40 40 41 41 41 40 40 39 38 38 39 39 39 38
6 8 11 13 12 9 8 7 4 4 8 12 14 15 14 16 18 12 6 7 6 4 6 9 9 8 6 8 13 10 7 7 5 6 10 8 7 9 8 9 14 15 13 15 14 12 13 14 14 14 12 14 19 23 26 29 31 32 34 35 35 36 36 36 36 36 36 38 39 39 40 41 41 41 42 42 42 41 40 40 39 39 39 39 39 38
5 7 13 18 17 13 9 7 8 9 9 13 17 17 16 15 16 14 11 11 7 4 6 8 7 10 11 10 11 9 7 8 7 7 9 7 7 8 8 11 15 15 14 15 15 15 15 14 14 14 13 14 19 23 24 27 31 33 34 35 36 36 36 36 36 36 36 37 39 40 41 43 42 42 42 43 42 41 40 40 40 39 38 38 38 38
4 6 11 16 18 19 16 12 12 13 12 12 16 18 18 17 17 16 14 13 9 6 9 8 5 7 10 11 11 8 7 8 8 9 9 8 8 8 8 13 17 17 16 16 15 14 14 13 13 13 13 14 16 20 22 25 29 31 33 35 37 37 37 37 37 37 37 37 39 41 43 43 42 41 41 42 41 41 40 40 40 39 37 37 38 37
3 5 8 12 14 18 19 18 17 16 14 12 13 16 18 19 20 18 14 11 11 10 10 10 10 9 8 8 9 7 7 6 4 4 5 7 11 12 9 11 13 14 14 14 13 12 13 14 14 14 14 14 14 18 21 23 27 31 33 35 37 37 37 38 38 38 37 38 40 41 42 42 40 40 40 41 41 42 41 40 39 37 36 36 37 36
7 5 6 7 7 11 17 20 20 19 16 14 12 13 17 19 20 19 16 12 10 9 10 10 10 11 8 7 7 6 5 4 3 4 1 2 9 14 13 11 13 14 13 12 12 12 12 13 13 13 13 14 16 20 23 25 29 32 33 34 36 37 38 38 39 39 39 39 40 41 41 40 39 39 40 40 40 40 40 39 37 36 34 33 34 33
10 4 5 4 2 5 10 17 21 20 17 17 18 16 16 16 14 13 14 14 12 10 8 7 7 8 8 7 7 6 4 5 6 6 4 3 6 11 12 12 13 15 15 14 14 13 14 14 14 14 14 15 17 22 26 27 29 30 32 34 37 38 38 38 39 40 40 40 40 40 40 39 39 39 39 40 39 38 38 37 35 33 32 31 32 32
10 6 4 5 3 3 4 7 13 15 14 16 18 16 11 9 11 11 11 13 16 13 7 6 7 7 5 6 6 8 7 7 7 7 6 6 7 9 11 11 12 13 15 16 16 15 15 13 13 14 15 15 18 25 30 31 30 31 35 37 38 38 37 37 39 41 41 40 41 42 41 40 40 39 39 39 39 37 36 35 33 32 31 30 30 31
11 9 4 5 4 3 4 5 6 8 11 11 10 11 11 8 9 10 8 9 12 11 10 9 7 5 4 6 8 9 10 9 8 7 7 8 8 9 9 9 10 10 12 15 16 15 14 13 12 13 15 18 24 29 33 34 34 36 38 37 36 38 38 37 37 39 41 41 41 42 42 41 40 40 39 39 38 35 34 34 32 31 30 28 28 29
10 9 4 3 4 4 3 4 6 7 8 6 5 9 11 10 8 8 9 9 7 7 10 11 8 7 7 6 6 7 7 9 7 6 8 8 8 9 8 8 8 8 9 12 14 15 14 14 13 11 13 20 27 29 30 32 34 34 35 35 36 37 39 38 36 38 40 41 41 42 42 41 40 39 38 37 36 35 34 33 32 30 28 27 27 28
8 6 5 2 4 4 3 4 6 4 4 5 3 4 3 3 4 4 5 7 5 4 1 1 1 1 0 2 2 1 1 5 5 4 6 8 8 8 8 8 8 7 7 10 12 14 14 14 14 15 19 24 27 27 28 31 33 31 31 34 35 36 38 37 34 36 39 40 40 41 42 41 39 38 36 35 35 34 33 32 31 29 28 27 25 25
7 5 3 2 2 5 5 4 4 3 4 6 4 1 2 2 1 2 1 3 5 7 7 5 6 7 7 7 6 6 6 6 5 5 5 6 8 8 8 7 7 7 7 8 11 14 16 19 21 24 26 27 26 27 29 31 32 31 30 32 33 33 35 35 32 34 38 40 40 40 41 41 38 36 35 35 34 33 33 33 32 30 27 26 24 24
7 4 1 1 1 1 4 4 4 4 5 5 2 2 3 4 4 7 4 2 5 7 8 7 7 8 8 8 7 7 8 7 5 7 8 7 7 8 8 7 7 7 6 6 8 13 17 22 26 28 28 27 26 29 31 31 31 30 28 29 31 31 31 31 32 34 37 40 40 40 40 40 38 37 36 36 35 34 33 33 32 30 28 26 24 22
9 4 1 1 1 1 2 5 5 5 4 3 2 1 4 6 5 6 5 3 5 5 7 9 9 9 8 7 7 7 8 5 4 7 9 9 10 10 10 9 6 5 4 1 2 8 17 24 27 28 27 25 26 30 31 31 31 30 27 28 31 30 28 29 32 36 38 40 40 39 39 39 39 38 38 37 35 35 34 33 31 29 27 24 22 20
7 3 2 2 1 2 2 2 3 2 2 1 1 2 5 7 6 5 1 3 4 5 7 9 10 9 8 7 7 8 8 5 5 7 10 10 10 11 12 8 5 8 8 5 4 4 18 25 22 20 21 23 28 33 34 33 31 27 27 29 29 28 28 30 34 37 38 39 38 38 39 39 39 39 38 37 35 34 33 31 29 27 24 22 20 18
6 4 3 3 3 2 3 1 2 1 1 2 4 4 3 5 6 4 5 5 2 5 7 10 11 9 8 8 7 6 6 5 5 7 11 12 10 10 11 8 1 5 7 6 6 1 14 22 20 20 24 28 32 34 35 34 30 27 28 28 27 28 31 33 35 36 36 37 37 38 39 39 39 39 37 36 35 33 31 29 28 27 25 22 21 19
6 5 3 3 5 2 3 2 2 1 1 0 4 7 7 3 3 3 4 2 3 7 8 9 10 8 8 8 7 5 6 6 8 9 12 13 12 11 12 12 9 7 5 7 10 7 5 17 20 22 26 30 33 33 34 32 27 26 27 25 25 31 34 33 35 37 37 38 38 38 38 38 38 38 36 36 35 33 30 29 28 28 26 24 23 21
3 4 3 3 4 2 2 3 2 1 3 1 3 5 5 2 4 3 1 5 6 7 8 8 9 8 7 7 7 7 7 8 9 10 10 11 12 12 11 11 11 12 12 10 10 11 4 7 14 19 24 29 30 31 34 33 27 23 23 25 29 34 33 33 36 38 37 38 37 37 38 38 38 37 36 36 36 34 32 30 29 28 27 26 24 23
2 2 2 3 4 2 2 1 1 5 10 6 2 2 1 2 1 1 4 6 6 6 6 7 9 8 7 8 8 9 9 9 9 10 10 10 11 11 11 12 11 12 14 13 14 17 13 5 3 7 15 23 30 34 33 30 27 23 20 23 30 33 34 35 36 36 36 36 36 36 37 37 36 36 37 36 36 35 33 31 30 28 27 26 25 25
3 2 2 2 1 1 3 4 5 11 15 9 3 6 4 3 5 6 7 7 6 6 6 7 8 9 10 10 10 10 9 8 8 9 10 10 10 10 11 12 12 12 13 13 16 21 18 12 11 12 11 9 12 28 35 32 26 22 21 26 31 35 38 38 37 36 35 34 35 35 35 34 34 35 36 36 36 35 33 31 30 29 28 27 25 25
2 1 4 3 2 3 4 3 5 11 16 14 5 4 8 8 8 9 10 9 8 8 8 8 9 11 11 11 10 9 8 6 7 9 10 10 11 11 11 12 13 15 15 15 16 19 16 11 14 14 15 23 29 21 19 31 31 23 22 30 35 37 39 38 36 35 34 33 34 34 34 33 33 33 33 33 34 34 33 32 32 30 28 26 25 24
2 1 3 2 4 4 3 3 7 10 15 16 8 2 11 13 10 10 11 9 8 11 11 10 11 12 12 12 11 10 8 8 8 8 8 9 10 11 12 12 12 14 15 16 17 17 13 9 11 11 9 10 21 33 27 11 26 31 31 35 38 39 41 40 37 35 34 34 34 34 34 34 33 32 32 31 31 31 30 30 31 29 27 25 24 23
3 4 4 3 3 3 3 3 6 8 13 13 10 6 8 13 13 12 11 10 11 13 13 13 12 12 11 11 10 10 11 11 10 9 9 8 8 9 10 10 11 12 14 17 19 18 13 8 7 9 8 7 12 22 32 28 7 15 25 31 36 38 37 37 36 34 32 33 34 33 34 34 33 32 31 29 29 29 28 28 28 27 25 24 23 23
4 5 4 3 4 4 2 3 5 7 10 12 14 11 8 8 13 14 12 13 14 14 14 14 14 12 12 11 10 11 12 12 11 10 10 9 8 9 9 9 11 12 12 15 19 18 14 9 7 7 9 11 16 23 23 27 25 19 23 25 30 35 33 31 34 34 30 28 29 30 32 31 31 31 31 30 30 28 26 25 25 24 23 22 22 23
3 3 2 2 3 3 1 3 4 4 5 7 10 10 10 8 10 14 14 14 14 12 12 14 13 13 13 12 11 12 13 12 11 11 11 10 9 8 8 9 10 10 11 14 18 19 15 10 8 8 12 14 17 22 21 15 17 21 30 32 34 38 36 32 31 31 27 26 27 28 29 29 29 30 32 32 31 29 25 22 21 21 22 21 20 20
2 2 2 2 3 4 5 5 3 1 2 5 8 9 8 7 9 13 13 13 13 11 11 13 12 12 13 12 12 12 12 11 11 11 11 12 12 11 10 10 8 8 11 15 16 16 16 12 6 6 11 13 14 15 18 16 15 22 30 31 30 33 34 31 27 24 23 25 26 27 28 28 28 30 30 30 30 30 27 24 21 19 19 19 18 18
Wind_Direction
191 209 219 217 222 216 210 216 222 225 230 239 248 249 238 231 236 244 233 176 159 160 172 160 169 180 166 185 179 162 164 164 166 168 169 165 163 170 170 169 174 179 184 185 191 186 175 178 178 176 182 184 181 180 181 181 183 186 187 184 183 182 184 185 184 186 185 181 182 186 191 194 194 194 196 202 206 202 206 212 211 213 215 215 217 222
198 217 220 216 222 229 221 214 221 231 235 240 250 261 261 252 246 252 234 168 159 162 175 160 163 178 168 187 181 159 164 170 170 174 173 167 165 170 174 173 175 179 178 177 187 191 180 177 179 179 180 183 183 181 182 182 183 186 188 187 186 183 183 185 185 186 187 187 187 187 191 195 197 198 200 203 206 202 204 211 211 209 214 217 219 224
207 222 217 214 216 228 234 220 216 226 233 239 247 256 265 269 273 272 238 166 164 167 169 165 168 178 169 178 176 162 168 175 173 176 175 171 167 169 176 175 172 175 176 176 182 191 187 178 179 182 181 183 184 182 182 183 185 188 191 191 189 186 184 184 185 186 188 190 192 193 192 195 199 203 205 206 206 205 207 212 213 211 214 217 220 227
210 213 209 216 215 217 230 230 219 220 227 237 242 242 252 261 269 277 247 172 169 165 157 166 172 175 166 169 181 176 175 174 176 181 178 173 171 172 176 176 171 173 177 179 179 186 191 182 179 182 183 183 183 182 181 183 185 188 192 193 192 189 187 185 185 188 191 191 194 197 197 196 199 205 208 208 207 209 209 210 214 215 215 217 220 224
233 204 194 213 222 216 221 229 225 219 219 228 236 240 242 248 251 260 270 210 168 166 158 157 167 193 169 168 189 198 181 174 177 182 182 177 174 173 175 176 174 173 176 179 180 183 189 187 182 182 183 183 183 183 184 185 186 188 191 192 193 192 189 187 187 189 190 190 191 194 195 196 200 204 202 202 205 207 208 208 211 213 214 217 219 220
240 224 195 204 216 221 221 221 222 221 223 223 227 235 243 251 255 260 273 269 156 174 178 150 162 239 184 172 187 197 185 182 181 182 186 182 173 172 174 177 177 176 177 177 179 182 187 190 186 183 183 183 185 187 188 188 188 189 190 191 192 193 192 190 189 190 189 188 190 190 189 192 199 199 193 196 201 203 205 206 205 206 211 217 216 211
224 228 222 211 205 213 222 223 218 216 226 231 218 225 238 252 262 264 267 262 162 185 203 169 160 223 194 182 186 189 190 192 192 190 188 182 175 174 173 177 179 179 180 179 180 182 185 189 186 183 184 184 187 189 190 191 189 188 189 190 191 193 194 193 190 190 188 187 189 191 190 192 196 197 193 195 198 200 203 203 201 203 207 214 211 198
204 212 226 227 212 207 214 222 217 213 223 236 219 215 225 239 252 258 262 262 215 177 194 186 160 144 199 205 189 182 186 195 202 203 195 183 180 179 174 176 180 181 181 180 182 182 185 188 187 185 185 186 188 189 190 190 189 189 189 190 192 193 194 194 192 190 190 189 189 191 194 193 193 197 197 195 196 200 202 200 199 201 204 207 203 191
209 210 215 223 226 214 206 210 211 216 224 231 230 224 220 226 239 249 257 266 254 218 208 194 161 146 219 220 192 177 179 193 203 204 199 186 182 182 178 174 177 183 182 180 183 184 184 188 189 187 186 187 188 188 190 190 190 191 190 190 192 193 194 195 194 191 190 191 190 191 194 194 194 198 200 197 196 198 200 198 198 199 199 194 189 185
221 219 212 216 228 225 206 200 203 215 223 224 232 237 233 228 230 237 243 256 257 247 233 198 173 172 230 205 186 184 184 193 200 202 196 186 182 183 183 180 177 180 183 184 186 184 183 187 189 187 185 186 187 188 190 191 191 191 190 190 191 194 195 194 195 194 191 191 191 191 193 195 196 197 199 198 196 195 195 195 196 197 195 188 182 186
241 236 221 216 221 223 216 202 200 211 219 220 228 238 246 241 235 235 228 225 249 252 224 199 187 183 214 211 185 187 190 181 182 192 194 190 189 185 185 187 183 180 181 184 188 188 185 185 187 185 184 186 187 187 188 189 191 191 190 190 191 194 196 194 195 195 193 192 191 192 194 195 196 196 195 196 196 196 194 194 196 195 192 186 181 187
240 243 240 229 214 212 221 216 202 202 211 217 220 227 241 252 252 254 241 207 229 243 217 209 205 194 207 221 193 185 182 173 172 183 189 194 198 195 191 190 188 184 181 181 185 189 186 182 184 185 184 185 185 185 186 188 189 190 190 190 190 193 195 195 195 195 195 194 193 194 195 196 196 193 193 194 195 195 194 195 195 189 186 184 181 185
229 235 242 248 226 211 217 220 203 198 205 212 212 211 217 234 232 233 243 217 222 238 211 213 234 222 213 200 186 183 178 176 180 183 188 193 196 197 195 192 188 184 185 184 181 185 187 184 183 185 183 182 184 186 186 187 188 189 189 189 189 191 194 195 196 196 195 195 195 195 196 197 196 194 194 194 194 194 193 194 189 181 180 182 181 182
226 227 230 241 233 209 215 216 190 192 200 207 208 201 199 208 217 218 231 228 230 247 218 216 234 231 234 205 183 184 184 184 188 188 189 192 193 195 193 190 189 185 186 188 184 184 187 186 185 185 183 182 185 187 186 186 187 187 188 189 189 191 193 195 196 196 196 196 196 196 196 197 197 196 195 195 196 194 193 193 188 182 183 186 185 186
227 227 214 224 223 193 207 214 199 189 199 210 208 204 208 206 210 209 206 213 226 240 223 220 222 200 219 214 184 183 188 188 190 191 191 193 192 194 192 188 188 188 187 187 188 186 184 188 186 183 184 184 185 186 185 186 186 186 187 189 189 190 192 194 195 196 196 196 197 196 197 197 197 198 197 197 198 197 196 194 191 189 190 192 192 193
228 237 200 211 223 207 199 200 209 219 214 208 197 210 222 207 203 214 206 213 224 236 226 219 215 181 199 206 182 182 188 184 184 188 194 196 191 192 193 188 187 189 188 184 184 184 182 186 185 182 185 186 184 185 185 186 185 185 187 188 189 190 192 194 195 196 197 197 197 197 197 197 197 197 197 198 200 200 199 196 193 194 196 198 199 198
221 234 202 201 216 222 206 185 199 219 220 183 195 219 224 198 204 234 237 247 248 243 232 212 232 218 214 228 192 184 188 187 186 187 195 198 184 185 190 189 188 187 186 184 184 185 182 180 184 185 185 184 184 185 186 187 185 185 186 187 188 190 191 194 195 197 197 197 197 198 197 197 196 197 197 197 199 199 198 196 196 198 200 202 202 198
216 236 214 201 207 217 217 198 201 214 214 188 199 211 202 204 227 223 226 238 236 241 230 210 237 224 200 243 211 187 187 189 193 193 200 201 179 178 184 185 186 184 182 185 187 190 185 179 184 186 184 184 185 186 187 187 186 186 187 187 187 188 190 194 195 197 198 198 198 198 197 197 196 197 198 198 198 198 196 195 198 200 201 203 203 200
217 249 230 212 206 202 210 214 208 211 214 219 231 184 157 209 223 208 217 211 209 235 246 230 242 220 190 217 201 187 181 179 187 193 203 206 181 173 179 181 182 182 182 186 188 192 192 188 187 186 186 185 185 186 186 186 185 186 188 187 187 189 191 193 195 197 198 199 199 198 198 197 197 198 199 199 198 197 197 198 199 200 202 203 203 202
214 242 245 227 209 185 192 214 208 198 204 219 246 234 205 208 200 200 222 217 197 220 232 234 246 233 208 206 188 186 177 174 185 190 201 206 188 174 175 178 181 181 182 187 189 192 196 196 193 189 188 187 184 184 183 183 185 186 187 187 188 190 191 192 195 197 198 199 199 199 198 197 197 198 200 199 198 198 199 201 202 202 202 203 203 203
216 227 255 255 220 188 188 201 193 183 188 203 221 226 227 224 189 192 210 215 204 198 201 217 236 248 232 198 191 199 188 185 191 189 194 199 186 178 174 174 182 185 185 187 188 193 196 197 196 192 190 188 183 181 181 183 185 185 186 186 187 188 190 192 195 197 198 199 198 198 198 198 198 199 200 200 199 199 200 202 204 204 203 203 203 203
213 217 234 267 247 215 199 187 183 184 189 194 206 219 224 220 200 199 211 215 211 208 209 213 240 257 245 205 199 204 198 198 195 185 188 188 179 182 181 176 180 184 187 188 188 192 194 191 191 191 189 186 180 179 181 183 184 185 185 186 186 188 190 193 195 197 197 198 198 199 199 198 199 200 200 200 200 201 203 204 204 204 204 203 203 204
201 210 220 243 255 254 230 190 181 184 191 196 203 214 221 218 208 208 216 211 210 220 216 217 254 261 247 232 220 207 200 202 191 174 179 188 184 185 186 182 183 185 186 187 187 190 190 187 185 183 183 184 181 179 180 182 184 185 185 185 186 188 192 195 196 197 197 197 198 199 199 199 200 200 200 200 201 203 205 206 206 205 204 204 204 205
189 207 213 230 259 274 269 222 184 181 188 199 204 204 213 221 218 222 226 194 196 214 195 195 238 245 241 249 247 225 198 185 180 176 179 187 191 194 189 181 182 186 187 187 187 187 184 180 177 175 179 185 183 179 179 181 183 184 184 185 187 189 192 195 196 196 196 197 198 199 199 200 200 200 200 200 202 205 206 207 207 206 206 206 206 206
186 198 190 198 229 251 266 251 194 184 188 200 203 195 203 214 217 228 235 206 203 216 197 189 234 235 215 228 254 251 205 168 173 183 184 179 184 199 198 177 176 185 188 187 185 179 172 168 173 179 182 184 183 180 179 180 181 183 185 187 188 190 193 194 195 195 196 197 198 198 199 201 201 200 201 201 204 206 207 207 208 208 207 207 207 208
192 189 182 196 207 213 227 233 202 183 184 197 205 196 198 206 212 221 225 213 224 226 211 207 234 248 209 201 224 244 221 197 190 186 193 193 187 196 192 168 174 182 180 176 174 166 164 171 180 183 181 180 182 181 180 179 179 182 185 188 189 191 193 194 194 194 196 196 197 198 199 201 201 201 201 202 205 206 207 207 208 208 208 208 208 210
197 187 188 201 204 208 222 232 239 204 186 191 201 204 200 202 208 211 216 223 217 205 223 224 223 245 251 212 218 227 209 210 222 184 183 185 180 184 170 155 172 178 171 168 169 167 171 178 181 180 177 179 181 182 181 180 180 181 183 186 189 191 192 193 194 194 196 196 197 199 200 201 201 202 202 204 206 206 207 208 209 209 210 209 209 210
205 198 192 199 206 211 220 238 244 240 223 196 191 200 207 207 209 208 214 226 211 177 245 248 215 227 249 246 237 235 211 206 210 181 169 163 161 166 155 156 168 173 173 173 172 172 176 180 180 177 175 176 179 181 181 181 181 181 182 185 187 190 191 192 193 194 196 197 198 199 201 202 202 202 203 204 206 207 208 209 210 211 211 211 211 212
181 199 194 195 205 213 221 237 239 240 246 219 191 193 202 209 216 219 219 219 208 206 239 239 201 210 239 247 244 237 224 219 208 188 175 152 136 137 144 159 167 170 173 174 173 174 175 178 180 179 178 176 178 180 181 182 182 181 182 185 187 189 190 191 191 194 196 197 199 200 202 202 202 202 203 205 206 207 209 210 211 212 212 212 213 214
187 183 194 196 202 207 215 231 241 243 249 240 209 194 196 205 214 223 231 225 213 220 233 228 220 223 231 243 242 221 205 214 202 173 169 137 129 134 142 153 161 166 170 174 177 178 178 180 182 182 180 178 179 183 183 183 183 183 183 185 187 189 190 190 190 192 195 197 199 201 202 202 201 201 203 204 206 207 208 210 211 211 212 212 213 214
261 200 179 191 201 203 206 217 233 244 251 256 244 211 200 204 208 212 224 233 231 231 231 224 229 237 233 232 244 230 189 166 115 113 154 145 139 144 148 154 161 165 169 175 180 182 184 186 185 182 180 181 183 185 186 186 186 186 185 185 187 189 189 189 190 192 194 197 199 200 201 201 201 201 203 204 206 207 208 209 210 210 211 211 210 210
288 230 153 134 165 219 212 208 217 230 248 261 258 239 214 204 206 208 209 214 224 232 234 226 224 241 241 227 239 249 209 169 156 153 166 186 168 161 159 159 164 169 171 174 180 186 189 187 185 183 184 187 187 186 188 189 187 186 186 187 189 189 189 190 191 192 195 197 197 198 200 200 199 200 202 204 205 206 207 207 208 209 209 208 206 205
296 274 179 142 158 221 246 227 216 216 230 245 247 246 237 211 209 216 206 202 209 214 229 235 219 223 219 192 215 250 246 210 189 179 180 185 192 196 186 171 168 175 178 179 183 187 188 185 185 188 190 189 189 190 190 189 186 187 190 190 189 188 189 191 192 192 195 196 196 196 198 198 198 199 201 203 204 205 205 205 206 206 206 205 204 202
293 287 230 156 149 181 216 255 257 228 223 233 230 232 248 245 225 228 229 216 208 206 217 220 212 217 210 182 196 225 242 239 218 199 200 194 185 197 205 199 193 190 185 186 187 186 185 186 185 187 190 191 193 195 193 189 188 191 192 190 188 187 189 192 193 193 194 195 195 196 196 196 196 197 199 200 201 201 201 202 202 201 200 200 198 197
292 298 273 178 142 139 167 212 246 241 238 245 205 204 231 246 247 254 259 254 246 236 227 215 208 225 237 230 217 209 227 249 242 198 192 192 178 179 195 209 208 192 180 185 191 190 188 189 187 181 185 192 196 196 192 190 191 192 190 188 187 187 190 192 192 192 194 195 195 195 195 195 195 195 196 196 196 196 197 196 194 192 192 192 190 190
280 293 292 238 153 146 146 196 223 244 305 297 227 185 211 255 262 278 279 283 320 1 293 217 14 318 324 62 45 45 287 273 264 215 191 183 168 166 177 191 198 192 182 182 189 192 190 187 186 186 189 193 194 192 190 190 190 188 188 189 189 189 191 193 192 191 192 195 195 194 193 193 192 192 191 190 189 190 189 186 183 183 185 185 185 187
285 289 305 341 162 169 170 213 251 293 306 275 251 155 51 25 64 116 192 300 8 53 71 62 37 27 38 50 44 35 30 14 341 303 257 209 185 176 176 183 192 200 206 196 186 188 192 191 191 192 193 192 191 190 190 190 187 185 186 189 190 191 192 192 192 191 192 194 195 193 192 190 188 187 184 182 181 180 179 177 176 176 178 179 181 186
276 288 2 22 317 169 164 198 251 258 238 233 262 11 20 37 82 110 112 349 3 50 72 77 63 49 41 29 21 34 44 36 353 306 290 270 246 224 203 198 201 204 220 228 202 188 189 192 194 196 194 189 189 192 191 188 185 183 185 188 190 192 192 193 194 192 191 193 193 191 189 187 184 180 177 175 174 173 171 172 174 175 177 179 181 186
274 278 2 322 306 49 170 195 217 237 223 184 169 127 61 54 62 79 67 350 329 18 60 75 68 56 50 32 26 44 50 31 328 305 314 316 304 285 257 232 204 165 157 174 201 194 194 194 195 196 192 187 189 192 190 188 186 184 184 189 191 192 192 192 194 193 190 191 190 186 183 181 178 174 171 170 170 169 168 170 173 176 180 183 183 182
310 327 23 309 249 107 119 215 224 231 244 246 231 142 102 85 73 72 92 260 295 2 49 71 68 57 51 44 44 56 53 22 320 312 327 332 330 319 296 264 182 136 129 105 51 192 197 196 194 190 189 190 192 191 187 186 187 186 186 189 191 194 195 192 191 191 188 184 181 178 175 173 171 169 167 165 165 165 166 168 170 172 174 176 177 173
336 359 25 318 309 65 88 246 241 161 243 299 350 6 41 83 86 116 197 225 316 27 47 62 64 59 55 56 58 66 56 19 333 336 349 349 351 351 336 318 277 132 127 99 35 30 190 192 192 191 193 194 193 191 187 184 185 187 188 187 189 195 198 192 185 181 176 172 169 168 167 167 165 163 162 162 161 160 161 163 165 165 165 165 164 159
347 345 0 334 312 354 63 11 335 351 298 304 37 10 6 58 116 191 197 167 55 51 54 59 61 58 57 62 66 74 64 29 357 357 8 6 2 2 358 352 347 350 30 54 31 21 179 190 193 194 196 195 192 189 187 184 186 188 185 183 190 197 195 185 175 169 165 162 161 160 159 159 159 158 157 158 157 154 153 155 157 159 160 158 154 150
338 323 339 336 312 319 36 49 77 323 300 291 80 16 12 112 200 246 71 71 59 55 57 56 55 53 59 66 62 59 55 37 14 5 10 13 10 2 358 5 6 357 357 9 20 21 29 198 199 194 191 191 190 189 189 187 187 187 185 185 191 190 183 172 165 161 157 156 154 154 153 152 152 153 153 154 154 149 146 148 152 154 155 153 149 147
350 341 331 347 352 356 5 35 53 320 314 312 138 144 241 196 238 351 74 75 56 47 53 59 53 45 52 64 60 52 47 37 22 10 7 13 16 9 0 2 12 14 6 360 3 10 13 4 261 216 194 190 190 190 192 191 185 181 184 188 185 175 165 161 158 153 151 151 149 148 148 147 148 149 149 150 149 145 143 146 149 151 153 152 150 147
43 15 263 269 353 307 255 270 312 324 320 321 78 108 103 56 39 56 79 76 57 40 42 58 59 49 50 58 57 52 45 32 19 13 11 9 8 10 10 7 8 15 14 11 7 2 4 24 31 16 360 328 241 205 195 190 185 180 179 178 171 161 156 154 151 146 145 145 144 143 143 141 141 143 144 146 147 145 145 147 148 149 152 154 153 150
91 264 247 252 344 318 261 264 336 338 321 308 303 104 93 71 54 61 71 67 60 54 48 49 56 57 59 63 62 54 41 29 23 20 17 12 7 8 13 12 14 15 13 16 13 357 353 26 50 47 25 357 336 305 229 192 181 176 170 165 161 156 152 148 143 140 139 138 137 138 136 133 133 136 139 142 146 147 149 151 150 149 150 152 152 151
74 349 287 307 354 342 313 352 6 338 312 304 298 98 91 82 74 69 72 72 65 61 57 50 50 56 61 64 67 64 53 43 38 30 22 19 16 14 11 11 17 18 13 16 18 5 356 20 49 60 67 31 358 345 329 250 182 169 162 157 153 151 147 142 137 135 134 132 131 131 130 129 129 132 135 138 140 143 146 149 149 148 148 149 149 151
347 343 340 340 339 312 282 348 357 312 304 329 358 30 74 87 89 80 76 79 72 65 60 54 49 52 54 53 57 65 60 50 43 38 32 26 22 19 15 12 17 19 17 17 18 14 11 20 49 63 63 67 59 28 1 347 358 139 145 147 145 141 137 133 130 126 123 123 124 125 126 128 129 130 131 133 135 137 140 145 148 147 149 153 156 157
287 304 324 321 311 296 269 341 352 315 316 357 19 10 5 57 85 84 77 74 70 66 64 59 53 52 53 47 44 52 53 45 36 35 34 29 24 21 17 15 19 23 25 22 17 15 17 17 23 54 59 51 67 73 45 8 7 46 79 95 109 110 104 102 107 109 112 117 119 121 124 126 129 131 130 130 132 133 136 142 148 149 151 158 165 165
285 301 339 328 319 335 345 344 349 326 315 351 15 10 354 13 65 78 75 68 64 63 65 65 59 52 50 45 41 48 51 41 31 33 36 33 23 18 21 25 24 21 25 32 28 20 16 15 15 39 58 56 63 80 81 43 22 56 77 84 94 99 98 99 105 111 118 123 123 124 125 126 129 132 132 131 131 129 128 134 145 153 154 159 166 169
323 313 337 338 304 288 285 294 318 350 313 330 356 8 357 360 46 68 72 71 70 66 63 66 62 54 50 43 38 44 49 42 33 32 37 35 26 20 24 26 23 16 17 29 36 25 10 9 27 63 70 66 65 83 95 85 69 83 94 100 105 110 114 117 118 119 125 128 128 129 128 127 129 131 131 132 132 129 127 127 132 142 148 153 163 171